User: anonymous   Login
Location: Unspecified
(0.0000°N, 0.0000°E)
Time: 19:48:53
(UTC+00:00)
Language:

NOSS 3-2 (C) - Orbit

View from above orbital plane
View from above orbital plane
View from above satellite
View from above satellite

Ground track
Ground track

The orbit data is extracted from the following two-line orbital elements,

1 28097U 03054C   20041.84500910 0.00000000  00000-0  00000-0 0    05
2 28097  63.4186   4.3596 0391464 358.8292   1.1708 13.40762717    02
Epoch (UTC): 10 February 2020 20:16:48
Eccentricity: 0.0391464
inclination: 63.4186°
perigee height: 813 km
apogee height: 1399 km
right ascension of ascending node: 4.3596°
argument of perigee: 358.8292°
revolutions per day: 13.40762717
mean anomaly at epoch: 1.1708°
orbit number at epoch: 0

The dashed part of the orbit path shows where the satellite is in the earth's shadow,  

DLR